FW6325 Weather Reports


time (UTC)temp
C
wind
direction
speed
KPH
gust
KPH
rain 1hr
cm
rain 24hr
cm
rain mn
cm
humidity
%
barometer
mb
20260508193041 7 63 3.2 11.3 0.00 1.75 0.00 86 1001.3
20260508191540 7 66 3.2 14.5 0.00 1.75 0.00 82 1001.3
20260508190049 8 62 3.2 14.5 0.00 1.75 0.00 83 1001.2
20260508184539 8 53 8.0 17.7 0.00 2.67 0.00 84 1001.1
20260508183039 8 69 4.8 9.7 0.00 2.67 0.00 83 1001.2
20260508181604 8 116 3.2 11.3 0.00 2.67 0.00 83 1001.4
20260508180038 8 43 3.2 11.3 0.00 2.67 0.00 83 1001.3
20260508174538 8 47 6.4 12.9 0.00 2.69 0.00 83 1001.2
20260508173035 8 47 4.8 12.9 0.00 2.69 0.00 83 1001.3
20260508171538 8 70 4.8 9.7 0.00 2.69 0.00 84 1001.5
20260508170034 8 128 6.4 11.3 0.00 2.69 0.00 83 1001.5
20260508164538 8 8 3.2 12.9 0.00 2.69 0.00 85 1001.3
20260508163032 7 94 1.6 6.4 0.00 2.69 0.00 87 1001.4
20260508161535 8 122 3.2 6.4 0.00 2.69 0.00 86 1001.6
20260508160037 7 103 3.2 6.4 0.00 2.69 0.00 88 1001.3
20260508154530 7 98 1.6 9.7 0.00 2.69 0.00 87 1001.6
20260508153028 8 99 3.2 11.3 0.00 2.69 0.00 87 1001.3
20260508151528 8 99 1.6 6.4 0.00 2.69 0.00 87 1001.5
20260508150027 8 84 1.6 11.3 0.00 2.69 0.00 87 1001.8
20260508144527 8 101 4.8 11.3 0.00 2.69 0.00 87 1001.6
20260508143032 8 85 4.8 12.9 0.00 2.69 0.00 87 1001.9
20260508141543 8 119 3.2 8.0 0.00 2.69 0.00 87 1002.3
20260508140025 8 98 8.0 14.5 0.00 2.69 0.00 87 1002.2
20260508134525 8 99 1.6 6.4 0.00 2.69 0.00 86 1002.6
20260508133124 8 108 4.8 11.3 0.00 2.69 0.00 87 1002.7
20260508131524 8 101 6.4 11.3 0.00 2.69 0.00 86 1002.2
20260508130025 8 100 4.8 9.7 0.00 2.69 0.00 88 1001.9
20260508124522 8 105 6.4 11.3 0.00 2.69 0.00 86 1002.2
20260508123023 8 98 6.4 11.3 0.00 2.69 0.00 87 1001.9
20260508121521 8 105 8.0 12.9 0.00 2.69 0.00 87 1002.0
20260508120020 8 114 6.4 12.9 0.00 2.69 0.00 87 1002.2
20260508114519 8 82 3.2 9.7 0.00 2.72 0.00 90 1002.5
20260508113018 7 30 4.8 12.9 0.00 2.72 0.00 92 1002.0
20260508111517 6 7 3.2 9.7 0.00 2.72 0.00 94 1002.2
20260508110016 5 51 0.0 4.8 0.00 2.72 0.00 95 1002.4
20260508104516 5 51 0.0 1.6 0.00 2.84 0.00 95 1002.7
20260508103026 5 51 0.0 3.2 0.00 2.84 0.00 95 1002.7
20260508101518 5 358 0.0 1.6 0.00 2.84 0.00 95 1002.6
20260508100013 5 358 0.0 0.0 0.00 2.84 0.00 95 1002.4
20260508094511 5 358 0.0 3.2 0.00 2.87 0.00 95 1002.1
20260508093009 5 358 0.0 4.8 0.00 2.87 0.00 95 1001.9
20260508091509 5 358 0.0 3.2 0.00 2.87 0.00 95 1001.7
20260508090009 5 358 0.0 0.0 0.00 2.87 0.00 95 1002.0
20260508084507 5 358 0.0 3.2 0.00 2.97 0.00 95 1002.0
20260508083005 4 358 0.0 3.2 0.00 2.97 0.00 94 1001.8
20260508081503 4 114 0.0 1.6 0.00 2.97 0.00 94 1001.6
20260508080002 4 114 0.0 1.6 0.00 3.05 0.00 94 1001.6
20260508074502 4 114 0.0 3.2 0.00 3.05 0.00 94 1001.7
20260508073100 4 114 0.0 1.6 0.00 3.05 0.00 94 1001.6
20260508071558 4 114 0.0 4.8 0.00 3.05 0.00 94 1001.7
20260508070055 4 114 1.6 4.8 0.00 3.05 0.00 94 1001.8
20260508064557 5 114 0.0 4.8 0.00 3.05 0.00 93 1001.6
20260508063051 5 103 0.0 4.8 0.00 3.05 0.00 93 1001.6
20260508061554 6 48 1.6 6.4 0.00 3.05 0.00 93 1001.8
20260508060042 6 3 1.6 4.8 0.00 3.05 0.00 93 1001.7
20260508054540 7 25 1.6 6.4 0.00 3.05 0.00 93 1001.5
20260508053038 7 151 0.0 4.8 0.00 3.05 0.00 93 1001.6
20260508051535 8 281 1.6 12.9 0.00 3.05 0.00 93 1001.4
20260508050033 8 314 1.6 6.4 0.00 3.05 0.00 93 1001.5
20260508044531 8 358 0.0 3.2 0.00 3.05 0.00 93 1001.5
20260508043029 8 358 0.0 6.4 0.00 3.05 0.00 93 1001.4
20260508041526 8 22 0.0 4.8 0.00 3.05 0.00 92 1001.5
20260508040034 9 47 1.6 4.8 0.00 3.05 0.00 92 1001.6
20260508034528 10 83 0.0 4.8 0.00 3.05 0.00 92 1001.6
20260508033024 10 334 0.0 6.4 0.00 3.05 0.00 93 1001.6
20260508031526 10 358 1.6 8.0 0.00 3.05 0.00 94 1001.6
20260508030017 10 353 3.2 12.9 0.00 3.05 0.00 94 1001.7
20260508024516 10 3 3.2 12.9 0.00 3.05 3.05 95 1001.8
20260508023025 10 20 1.6 6.4 0.00 3.05 3.05 95 1001.6
20260508021517 9 255 3.2 8.0 0.00 3.05 3.05 95 1001.6
20260508020015 8 221 0.0 6.4 0.00 3.05 3.05 95 1001.6
20260508014532 9 51 1.6 4.8 0.00 3.05 3.05 94 1001.5
20260508013013 9 221 0.0 4.8 0.00 3.05 3.05 95 1001.3
20260508011511 9 194 3.2 8.0 0.00 3.05 3.05 94 1001.2
20260508010016 9 173 1.6 8.0 0.00 3.05 3.05 94 1001.5
20260508004514 9 161 1.6 6.4 0.00 3.05 3.05 94 1001.4
20260508003016 10 126 3.2 11.3 0.00 3.05 3.05 94 1001.5
20260508001503 10 176 1.6 6.4 0.00 3.05 3.05 94 1001.5
20260508000003 10 107 1.6 4.8 0.00 3.05 3.05 94 1001.7
20260507234502 10 139 3.2 6.4 0.00 3.05 3.05 94 1002.0
20260507233002 10 151 0.0 8.0 0.00 3.05 3.05 94 1001.6
20260507231603 10 103 1.6 4.8 0.00 3.05 3.05 94 1001.8
20260507230101 10 119 1.6 11.3 0.00 3.05 3.05 94 1001.7
20260507224616 10 173 4.8 14.5 0.00 3.05 3.05 94 1001.8
20260507223101 10 148 1.6 16.1 0.00 3.05 3.05 94 1002.0
20260507221556 11 98 1.6 4.8 0.00 3.05 3.05 94 1002.1
20260507220057 11 239 4.8 17.7 0.03 3.05 3.05 94 1002.2
20260507214555 11 293 4.8 12.9 0.05 3.05 3.05 94 1002.3
20260507213053 10 188 4.8 17.7 0.13 3.05 3.05 94 1002.1
20260507211611 10 313 1.6 9.7 0.33 3.05 3.05 94 1001.8
20260507210050 10 214 6.4 11.3 0.53 3.02 3.02 94 1001.6
20260507204544 10 151 6.4 16.1 0.79 2.97 2.97 94 1002.5
20260507203044 10 250 4.8 9.7 1.04 2.90 2.90 93 1002.6
20260507201540 10 200 4.8 14.5 1.12 2.69 2.69 93 1003.2
20260507200038 11 148 1.6 14.5 1.17 2.49 2.49 93 1003.5
20260507194539 11 177 4.8 22.5 1.04 2.21 2.21 93 1004.0